Home > Weather > Lund > Past weeks

Flag for Sweden Past Weather in Lund, Sweden — Yesterday and Last 2 Weeks

Now
57 °F

Clear.


Feels Like: 57 °F
Forecast: 58 / 78 °F
Wind: No wind

Location: Malmo / Sturup

Current Time: Jul 24, 2016 at 3:08:30 AM

Latest Report: Jul 24, 2016 at 2:20 AM


Visibility: 10 mi

Pressure: 30.15 "Hg

Humidity: 100%

Dew Point: 57 °F

Location of LundLocation

Past Weather in Lund — Graph

°F

Lund Temperature Yesterday

Maximum temperature yesterday: 77 °F (at 10:50 AM)
Minimum temperature yesterday: 54 °F (at 2:20 AM)
Average temperature yesterday: 67 °F

High & Low Weather Summary for the Past Weeks

 TemperatureHumidityPressure
High81 °F (Jul 22, 2:20 PM)100% (Jul 9, 1:20 AM)30.15 "Hg (Jul 9, 1:20 AM)
Low50 °F (Jul 14, 4:20 AM)42% (Jul 22, 2:50 PM)29.62 "Hg (Jul 11, 4:50 AM)
Average63 °F80%29.96 "Hg
* Reported Jul 9 1:20 AM — Jul 24 1:50 AM, Lund, Weather by CustomWeather, © 2016

Note: Actual official high and low records may vary slightly from our data, if they occured in-between our weather recording intervals... More about our weather records

Advertising

Lund Weather History for the Previous 24 Hours

Scroll right to see more
 ConditionsComfort  
Time TempWeatherWind HumidityBarometerVisibility
1:50 AM
Sun, Jul 24
59 °FClear.No wind94%30.15 "Hg10 mi
1:20 AM59 °FClear.1 mph94%30.15 "Hg10 mi
12:50 AM59 °FClear.3 mph94%30.15 "Hg10 mi
12:20 AM57 °FClear.1 mph100%30.15 "Hg10 mi
11:50 PM
Sat, Jul 23
59 °FClear.2 mph94%30.15 "Hg10 mi
11:20 PM59 °FClear.2 mph88%30.15 "Hg10 mi
10:50 PM61 °FClear.No wind88%30.15 "Hg10 mi
10:20 PM61 °FSunny.2 mph88%30.15 "Hg10 mi
9:50 PM63 °FSunny.2 mph83%30.15 "Hg10 mi
9:20 PM64 °FSunny.3 mph78%30.12 "Hg10 mi
8:50 PM64 °FSunny.3 mph78%30.12 "Hg10 mi
8:20 PM68 °FSunny.6 mph69%30.12 "Hg10 mi
7:50 PM70 °FSunny.6 mph64%30.12 "Hg10 mi
7:20 PM72 °FSunny.6 mph61%30.12 "Hg10 mi
6:50 PM73 °FSunny.8 mph57%30.12 "Hg10 mi
6:20 PM75 °FSunny.8 mph50%30.12 "Hg10 mi
5:50 PM75 °FSunny.7 mph50%30.12 "Hg10 mi
5:20 PM75 °FPassing clouds.7 mph50%30.12 "HgN/A
4:50 PM75 °FSunny.8 mph50%30.15 "Hg10 mi
4:20 PM77 °FSunny.8 mph51%30.12 "Hg10 mi
3:50 PM77 °FSunny.8 mph51%30.15 "Hg10 mi
3:20 PM77 °FPassing clouds.8 mph51%30.15 "HgN/A
2:50 PM75 °FSunny.9 mph54%30.12 "Hg10 mi
2:20 PM77 °FPassing clouds.8 mph54%30.15 "HgN/A
1:50 PM75 °FSunny.8 mph61%30.12 "Hg10 mi
1:20 PM75 °FPassing clouds.7 mph61%30.12 "HgN/A
12:50 PM77 °FSunny.9 mph54%30.12 "Hg10 mi
12:20 PM75 °FSunny.9 mph57%30.12 "Hg10 mi
11:50 AM77 °FPassing clouds.5 mph54%30.12 "HgN/A
11:20 AM77 °FSunny.1 mph54%30.12 "Hg10 mi
10:50 AM77 °FSunny.2 mph57%30.12 "Hg10 mi
10:20 AM75 °FPassing clouds.5 mph61%30.12 "HgN/A
9:50 AM73 °FSunny.2 mph61%30.12 "Hg10 mi
9:20 AM73 °FSunny.2 mph57%30.12 "Hg10 mi
8:50 AM72 °FSunny.5 mph61%30.12 "Hg10 mi
8:20 AM70 °FPassing clouds.3 mph69%30.12 "HgN/A
7:50 AM68 °FSunny.3 mph73%30.12 "Hg10 mi
7:20 AM66 °FSunny.No wind88%30.09 "Hg10 mi
6:50 AM59 °FSunny.1 mph100%30.09 "Hg10 mi
6:20 AM55 °FSunny.No wind100%30.09 "Hg10 mi
5:50 AM54 °FClear.2 mph100%30.09 "Hg10 mi
5:20 AM54 °FClear.No wind100%30.09 "Hg10 mi
4:50 AM54 °FClear.1 mph100%30.09 "Hg10 mi
4:20 AM54 °FClear.3 mph100%30.09 "Hg10 mi
3:50 AM55 °FClear.No wind94%30.09 "Hg10 mi
3:20 AM55 °FClear.5 mph100%30.09 "Hg10 mi
Weather by CustomWeather, © 2016

See weather overviewHow to use our weather pages